TPC2022 KHHR-KSAN

Flight info

Callsign TPC2022
Flight time 1h 9m
Altitude 7000
Route SLI V23 OCN V23 MZB
Aircraft C172/L-SD/S

Departure

Time 2026-05-09 15:52
Airport Jack Northrop Field Hawthorne Municipal Airport (KHHR)

Arrival

Time 2026-05-09 17:01
Airport San Diego International Airport (KSAN)
Time Latitude Longitude Altitude Speed Heading
2026-05-09 15:03 33.92310 -118.34328 63 ft 0 kts 92°
2026-05-09 15:45 33.92310 -118.34322 64 ft 4 kts 92°
2026-05-09 15:45 33.92302 -118.34237 64 ft 13 kts 94°
2026-05-09 15:45 33.92298 -118.34106 64 ft 16 kts 88°
2026-05-09 15:45 33.92304 -118.33977 64 ft 15 kts 86°
2026-05-09 15:46 33.92310 -118.33849 64 ft 15 kts 88°
2026-05-09 15:46 33.92316 -118.33711 61 ft 17 kts 86°
2026-05-09 15:46 33.92323 -118.33565 60 ft 17 kts 86°
2026-05-09 15:46 33.92330 -118.33428 60 ft 15 kts 85°
2026-05-09 15:47 33.92336 -118.33314 61 ft 12 kts 87°
2026-05-09 15:47 33.92340 -118.33218 60 ft 9 kts 87°
2026-05-09 15:47 33.92340 -118.33159 60 ft 2 kts 116°
2026-05-09 15:47 33.92330 -118.33148 60 ft 6 kts 153°
2026-05-09 15:48 33.92278 -118.33147 60 ft 7 kts 175°
2026-05-09 15:48 33.92263 -118.33092 59 ft 9 kts 88°
2026-05-09 15:48 33.92268 -118.32992 57 ft 14 kts 86°
2026-05-09 15:48 33.92271 -118.32868 57 ft 14 kts 88°
2026-05-09 15:49 33.92276 -118.32762 57 ft 8 kts 88°
2026-05-09 15:49 33.92283 -118.32731 57 ft 0 kts 44°
2026-05-09 15:51 33.92310 -118.32716 57 ft 6 kts 359°
2026-05-09 15:51 33.92322 -118.32741 57 ft 2 kts 266°
2026-05-09 15:51 33.92309 -118.32998 57 ft 60 kts 265°
2026-05-09 15:52 33.92371 -118.34289 462 ft 78 kts 279°
2026-05-09 15:52 33.92480 -118.34925 716 ft 79 kts 285°
2026-05-09 15:52 33.92588 -118.35586 932 ft 83 kts 266°
2026-05-09 15:53 33.92274 -118.36157 1151 ft 85 kts 219°
2026-05-09 15:53 33.91823 -118.36609 1400 ft 83 kts 219°
2026-05-09 15:53 33.91397 -118.37045 1651 ft 82 kts 220°
2026-05-09 15:53 33.90954 -118.37510 1876 ft 84 kts 214°
2026-05-09 15:54 33.90481 -118.37914 2116 ft 84 kts 216°
2026-05-09 15:54 33.90012 -118.38354 2347 ft 86 kts 219°
2026-05-09 15:54 33.89550 -118.38808 2580 ft 86 kts 217°
2026-05-09 15:54 33.89003 -118.39091 2795 ft 86 kts 203°
2026-05-09 15:55 33.88448 -118.39362 3036 ft 85 kts 203°
2026-05-09 15:55 33.87949 -118.39771 3238 ft 88 kts 220°
2026-05-09 15:55 33.87407 -118.40067 3471 ft 85 kts 204°
2026-05-09 15:55 33.86847 -118.40305 3706 ft 84 kts 197°
2026-05-09 15:56 33.86293 -118.40517 3951 ft 85 kts 198°
2026-05-09 15:56 33.85718 -118.40731 4191 ft 86 kts 198°
2026-05-09 15:56 33.85142 -118.40930 4443 ft 86 kts 196°
2026-05-09 15:56 33.84579 -118.41154 4675 ft 87 kts 207°
2026-05-09 15:57 33.84035 -118.41453 4917 ft 86 kts 206°
2026-05-09 15:57 33.83430 -118.41770 4964 ft 108 kts 204°
2026-05-09 15:57 33.82685 -118.42143 4941 ft 122 kts 203°
2026-05-09 15:57 33.81880 -118.42501 4958 ft 122 kts 200°
2026-05-09 15:58 33.81069 -118.42844 4967 ft 123 kts 201°
2026-05-09 15:58 33.80276 -118.43205 5001 ft 121 kts 200°
2026-05-09 15:58 33.79472 -118.43536 5013 ft 122 kts 200°
2026-05-09 15:58 33.78652 -118.43873 5013 ft 124 kts 200°
2026-05-09 15:59 33.77829 -118.44207 5009 ft 124 kts 200°
2026-05-09 15:59 33.77014 -118.44533 5038 ft 123 kts 194°
2026-05-09 15:59 33.76171 -118.44382 4998 ft 127 kts 150°
2026-05-09 15:59 33.75395 -118.43948 5043 ft 123 kts 175°
2026-05-09 16:00 33.74591 -118.44250 5017 ft 124 kts 222°
2026-05-09 16:00 33.74298 -118.44822 4999 ft 122 kts 257°
2026-05-09 16:00 33.74343 -118.46146 5024 ft 117 kts 278°
2026-05-09 16:00 33.74416 -118.47131 5021 ft 118 kts 278°
2026-05-09 16:01 33.74484 -118.48116 5008 ft 119 kts 277°
2026-05-09 16:01 33.74555 -118.49133 4953 ft 122 kts 277°
2026-05-09 16:01 33.74623 -118.50143 4935 ft 122 kts 278°
2026-05-09 16:01 33.74707 -118.51150 4958 ft 119 kts 278°
2026-05-09 16:02 33.74734 -118.52148 4956 ft 120 kts 270°
2026-05-09 16:02 33.74596 -118.54129 4967 ft 119 kts 268°
2026-05-09 16:02 33.74535 -118.55130 4965 ft 119 kts 270°
2026-05-09 16:03 33.74507 -118.56115 4978 ft 118 kts 270°
2026-05-09 16:03 33.74467 -118.57114 4984 ft 118 kts 269°
2026-05-09 16:03 33.74420 -118.58099 4988 ft 118 kts 270°
2026-05-09 16:03 33.74399 -118.59095 4985 ft 118 kts 275°
2026-05-09 16:04 33.74437 -118.60076 4994 ft 117 kts 275°
2026-05-09 16:04 33.74478 -118.61053 4995 ft 118 kts 275°
2026-05-09 16:04 33.74513 -118.62037 5018 ft 117 kts 275°
2026-05-09 16:04 33.74551 -118.63016 5011 ft 117 kts 272°
2026-05-09 16:05 33.74458 -118.63980 5029 ft 118 kts 264°
2026-05-09 16:05 33.74332 -118.64970 5039 ft 118 kts 263°
2026-05-09 16:05 33.74234 -118.65942 5045 ft 119 kts 266°
2026-05-09 16:05 33.74150 -118.66949 5008 ft 122 kts 266°
2026-05-09 16:06 33.74090 -118.67956 5024 ft 119 kts 273°
2026-05-09 16:06 33.74088 -118.68944 5039 ft 118 kts 273°
2026-05-09 16:06 33.74050 -118.69924 5055 ft 118 kts 266°
2026-05-09 16:06 33.73965 -118.70914 5065 ft 118 kts 266°
2026-05-09 16:07 33.73909 -118.71883 5081 ft 117 kts 270°
2026-05-09 16:07 33.73844 -118.72871 5105 ft 117 kts 267°
2026-05-09 16:07 33.73772 -118.73839 5109 ft 118 kts 266°
2026-05-09 16:07 33.73649 -118.74818 5126 ft 118 kts 261°
2026-05-09 16:08 33.73191 -118.75642 5116 ft 123 kts 216°
2026-05-09 16:08 33.72359 -118.75893 5111 ft 125 kts 182°
2026-05-09 16:08 33.71478 -118.75916 5067 ft 129 kts 181°
2026-05-09 16:08 33.70580 -118.75936 5054 ft 128 kts 181°
2026-05-09 16:09 33.69698 -118.75960 5040 ft 129 kts 181°
2026-05-09 16:09 33.68784 -118.75986 4991 ft 131 kts 181°
2026-05-09 16:09 33.67881 -118.76012 4988 ft 129 kts 182°
2026-05-09 16:09 33.66981 -118.76016 4967 ft 129 kts 181°
2026-05-09 16:10 33.66071 -118.76025 4946 ft 129 kts 181°
2026-05-09 16:10 33.65181 -118.76023 4929 ft 129 kts 180°
2026-05-09 16:10 33.64277 -118.76006 4902 ft 129 kts 179°
2026-05-09 16:10 33.63375 -118.75932 4864 ft 130 kts 175°
2026-05-09 16:11 33.62471 -118.75851 4842 ft 129 kts 176°
2026-05-09 16:11 33.61567 -118.75747 4812 ft 130 kts 173°
2026-05-09 16:11 33.60670 -118.75593 4795 ft 129 kts 172°
2026-05-09 16:11 33.59787 -118.75378 4770 ft 130 kts 158°
2026-05-09 16:12 33.58958 -118.74976 4795 ft 127 kts 157°
2026-05-09 16:12 33.58132 -118.74570 4770 ft 129 kts 157°
2026-05-09 16:12 33.57311 -118.74167 4774 ft 128 kts 158°
2026-05-09 16:12 33.56484 -118.73786 4785 ft 126 kts 159°
2026-05-09 16:13 33.55653 -118.73419 4775 ft 127 kts 159°
2026-05-09 16:13 33.54819 -118.73040 4761 ft 128 kts 158°
2026-05-09 16:13 33.53989 -118.72661 4762 ft 127 kts 159°
2026-05-09 16:13 33.53156 -118.72284 4767 ft 127 kts 159°
2026-05-09 16:14 33.52323 -118.71907 4746 ft 129 kts 159°
2026-05-09 16:14 33.51479 -118.71497 4691 ft 132 kts 156°
2026-05-09 16:14 33.50634 -118.71017 4606 ft 135 kts 149°
2026-05-09 16:14 33.50027 -118.70209 4619 ft 128 kts 119°
2026-05-09 16:15 33.49538 -118.69305 4676 ft 126 kts 122°
2026-05-09 16:15 33.49012 -118.68467 4728 ft 126 kts 126°
2026-05-09 16:15 33.48528 -118.67596 4767 ft 126 kts 118°
2026-05-09 16:15 33.48088 -118.66698 4824 ft 125 kts 118°
2026-05-09 16:16 33.47644 -118.65793 4845 ft 127 kts 119°
2026-05-09 16:16 33.47163 -118.64902 4871 ft 127 kts 121°
2026-05-09 16:16 33.46684 -118.64027 4917 ft 126 kts 121°
2026-05-09 16:16 33.46212 -118.63142 4935 ft 125 kts 120°
2026-05-09 16:17 33.45747 -118.62254 4923 ft 126 kts 120°
2026-05-09 16:17 33.45281 -118.61372 4925 ft 125 kts 119°
2026-05-09 16:17 33.44801 -118.60493 4920 ft 125 kts 122°
2026-05-09 16:17 33.44283 -118.59654 4918 ft 125 kts 124°
2026-05-09 16:18 33.43777 -118.58803 4917 ft 125 kts 122°
2026-05-09 16:18 33.43284 -118.57932 4910 ft 126 kts 121°
2026-05-09 16:18 33.42815 -118.57064 4923 ft 124 kts 122°
2026-05-09 16:18 33.42342 -118.56208 4947 ft 123 kts 121°
2026-05-09 16:19 33.41874 -118.55338 4944 ft 124 kts 120°
2026-05-09 16:19 33.41412 -118.54469 4974 ft 122 kts 119°
2026-05-09 16:19 33.40960 -118.53613 5000 ft 121 kts 121°
2026-05-09 16:19 33.40476 -118.52786 5016 ft 121 kts 125°
2026-05-09 16:20 33.39924 -118.52033 5067 ft 120 kts 130°
2026-05-09 16:20 33.39460 -118.51208 5125 ft 117 kts 118°
2026-05-09 16:20 33.39088 -118.50335 5136 ft 121 kts 112°
2026-05-09 16:20 33.38725 -118.49415 5153 ft 126 kts 114°
2026-05-09 16:21 33.38320 -118.48453 5110 ft 129 kts 115°
2026-05-09 16:21 33.37911 -118.47529 5102 ft 123 kts 116°
2026-05-09 16:21 33.37496 -118.46609 4965 ft 126 kts 117°
2026-05-09 16:21 33.37064 -118.45694 4891 ft 126 kts 118°
2026-05-09 16:22 33.36637 -118.44797 4927 ft 125 kts 116°
2026-05-09 16:22 33.36236 -118.43870 4959 ft 124 kts 114°
2026-05-09 16:22 33.35846 -118.42937 4939 ft 125 kts 114°
2026-05-09 16:22 33.35472 -118.42020 4956 ft 123 kts 112°
2026-05-09 16:23 33.35043 -118.41112 4952 ft 125 kts 119°
2026-05-09 16:23 33.34581 -118.40225 4947 ft 125 kts 120°
2026-05-09 16:23 33.34130 -118.39346 4935 ft 123 kts 117°
2026-05-09 16:23 33.33687 -118.38474 4947 ft 122 kts 120°
2026-05-09 16:24 33.33249 -118.37597 4954 ft 123 kts 118°
2026-05-09 16:24 33.32811 -118.36715 4952 ft 124 kts 118°
2026-05-09 16:24 33.32371 -118.35818 4953 ft 125 kts 118°
2026-05-09 16:24 33.31933 -118.34917 4951 ft 125 kts 118°
2026-05-09 16:25 33.31489 -118.34015 4947 ft 125 kts 119°
2026-05-09 16:25 33.31196 -118.33418 4946 ft 125 kts 118°
2026-05-09 16:25 33.30614 -118.32226 4943 ft 125 kts 118°
2026-05-09 16:25 33.30175 -118.31319 4940 ft 126 kts 118°
2026-05-09 16:26 33.29736 -118.30402 4942 ft 126 kts 118°
2026-05-09 16:26 33.29304 -118.29501 4943 ft 126 kts 118°
2026-05-09 16:26 33.28864 -118.28580 4944 ft 127 kts 118°
2026-05-09 16:26 33.28425 -118.27658 4944 ft 127 kts 118°
2026-05-09 16:27 33.27990 -118.26744 4942 ft 127 kts 118°
2026-05-09 16:27 33.27551 -118.25819 4940 ft 127 kts 118°
2026-05-09 16:27 33.27113 -118.24894 4937 ft 127 kts 118°
2026-05-09 16:27 33.26675 -118.23969 4940 ft 127 kts 118°
2026-05-09 16:28 33.26237 -118.23043 4942 ft 128 kts 118°
2026-05-09 16:28 33.25802 -118.22119 4937 ft 127 kts 118°
2026-05-09 16:28 33.25365 -118.21199 4938 ft 127 kts 118°
2026-05-09 16:28 33.24931 -118.20291 4937 ft 127 kts 118°
2026-05-09 16:29 33.24489 -118.19376 4936 ft 127 kts 118°
2026-05-09 16:29 33.24046 -118.18463 4938 ft 127 kts 118°
2026-05-09 16:29 33.23602 -118.17554 4937 ft 127 kts 119°
2026-05-09 16:29 33.23154 -118.16647 4938 ft 127 kts 119°
2026-05-09 16:30 33.22702 -118.15735 4938 ft 127 kts 119°
2026-05-09 16:30 33.22245 -118.14819 4936 ft 127 kts 119°
2026-05-09 16:30 33.21794 -118.13921 4939 ft 127 kts 120°
2026-05-09 16:30 33.21331 -118.13008 4937 ft 127 kts 120°
2026-05-09 16:31 33.20874 -118.12112 4939 ft 127 kts 120°
2026-05-09 16:31 33.20411 -118.11211 4939 ft 127 kts 120°
2026-05-09 16:31 33.19941 -118.10300 4938 ft 128 kts 120°
2026-05-09 16:31 33.19472 -118.09401 4939 ft 128 kts 121°
2026-05-09 16:32 33.18998 -118.08496 4941 ft 128 kts 121°
2026-05-09 16:32 33.18559 -118.07573 4940 ft 127 kts 115°
2026-05-09 16:32 33.18174 -118.06629 4940 ft 129 kts 114°
2026-05-09 16:32 33.17770 -118.05653 4939 ft 132 kts 115°
2026-05-09 16:33 33.17354 -118.04671 4932 ft 133 kts 115°
2026-05-09 16:33 33.16927 -118.03685 4935 ft 134 kts 116°
2026-05-09 16:33 33.16495 -118.02705 4940 ft 134 kts 116°
2026-05-09 16:33 33.16053 -118.01719 4940 ft 135 kts 117°
2026-05-09 16:34 33.15606 -118.00732 4942 ft 135 kts 117°
2026-05-09 16:34 33.15155 -117.99743 4942 ft 135 kts 117°
2026-05-09 16:34 33.14705 -117.98766 4941 ft 135 kts 117°
2026-05-09 16:34 33.14552 -117.98435 4939 ft 135 kts 118°
2026-05-09 16:35 33.13334 -117.95824 4940 ft 135 kts 118°
2026-05-09 16:35 33.12879 -117.94846 4939 ft 135 kts 118°
2026-05-09 16:35 33.12419 -117.93867 4939 ft 135 kts 118°
2026-05-09 16:36 33.11963 -117.92899 4941 ft 134 kts 118°
2026-05-09 16:36 33.10583 -117.89977 4933 ft 134 kts 118°
2026-05-09 16:37 33.10276 -117.89328 4934 ft 134 kts 118°
2026-05-09 16:37 33.09667 -117.88043 4939 ft 134 kts 118°
2026-05-09 16:37 33.09203 -117.87065 4938 ft 134 kts 118°
2026-05-09 16:37 33.08744 -117.86097 4940 ft 134 kts 118°
2026-05-09 16:38 33.08281 -117.85122 4940 ft 135 kts 118°
2026-05-09 16:38 33.07820 -117.84152 4940 ft 135 kts 118°
2026-05-09 16:38 33.07357 -117.83177 4938 ft 135 kts 118°
2026-05-09 16:38 33.06891 -117.82197 4935 ft 135 kts 118°
2026-05-09 16:39 33.06446 -117.81265 4947 ft 129 kts 118°
2026-05-09 16:39 33.06008 -117.80344 4966 ft 123 kts 118°
2026-05-09 16:39 33.05602 -117.79499 4976 ft 114 kts 118°
2026-05-09 16:39 33.05218 -117.78674 4948 ft 113 kts 116°
2026-05-09 16:40 33.04859 -117.77851 4953 ft 110 kts 115°
2026-05-09 16:40 33.04520 -117.77038 4981 ft 108 kts 115°
2026-05-09 16:42 33.02314 -117.71665 5327 ft 113 kts 111°
2026-05-09 16:42 33.01974 -117.70831 5332 ft 111 kts 116°
2026-05-09 16:42 33.01636 -117.69997 5295 ft 113 kts 112°
2026-05-09 16:42 33.01269 -117.69149 5202 ft 117 kts 116°
2026-05-09 16:43 33.00893 -117.68273 5099 ft 118 kts 114°
2026-05-09 16:43 33.00523 -117.67399 5006 ft 118 kts 115°
2026-05-09 16:43 33.00155 -117.66529 4886 ft 119 kts 115°
2026-05-09 16:43 32.99788 -117.65637 4729 ft 121 kts 113°
2026-05-09 16:44 32.99426 -117.64716 4555 ft 123 kts 113°
2026-05-09 16:44 32.99068 -117.63827 4488 ft 116 kts 114°
2026-05-09 16:44 32.98741 -117.62973 4488 ft 111 kts 108°
2026-05-09 16:44 32.98474 -117.62104 4458 ft 111 kts 110°
2026-05-09 16:45 32.98108 -117.61294 4447 ft 109 kts 120°
2026-05-09 16:45 32.97736 -117.60535 4514 ft 105 kts 117°
2026-05-09 16:45 32.97380 -117.59778 4567 ft 104 kts 117°
2026-05-09 16:45 32.97008 -117.59022 4603 ft 106 kts 118°
2026-05-09 16:46 32.96648 -117.58258 4642 ft 105 kts 115°
2026-05-09 16:46 32.96320 -117.57494 4704 ft 103 kts 115°
2026-05-09 16:46 32.95951 -117.56760 4743 ft 104 kts 119°
2026-05-09 16:46 32.95573 -117.56009 4737 ft 107 kts 118°
2026-05-09 16:47 32.95203 -117.55238 4747 ft 108 kts 115°
2026-05-09 16:47 32.94815 -117.54449 4711 ft 111 kts 121°
2026-05-09 16:47 32.94407 -117.53688 4762 ft 106 kts 119°
2026-05-09 16:47 32.94012 -117.52943 4769 ft 108 kts 120°
2026-05-09 16:48 32.93623 -117.52163 4728 ft 112 kts 119°
2026-05-09 16:48 32.93203 -117.51383 4689 ft 112 kts 120°
2026-05-09 16:48 32.92785 -117.50571 4579 ft 117 kts 120°
2026-05-09 16:48 32.92382 -117.49696 4392 ft 122 kts 112°
2026-05-09 16:49 32.92151 -117.48704 4125 ft 126 kts 103°
2026-05-09 16:49 32.91940 -117.47765 4125 ft 112 kts 103°
2026-05-09 16:49 32.91772 -117.46890 4158 ft 106 kts 99°
2026-05-09 16:50 32.91616 -117.45144 4196 ft 102 kts 90°
2026-05-09 16:50 32.91597 -117.44314 4202 ft 107 kts 89°
2026-05-09 16:50 32.91550 -117.43416 4132 ft 111 kts 96°
2026-05-09 16:50 32.91410 -117.42493 4011 ft 115 kts 98°
2026-05-09 16:51 32.91278 -117.41557 3878 ft 116 kts 97°
2026-05-09 16:51 32.91166 -117.40634 3888 ft 108 kts 97°
2026-05-09 16:51 32.91011 -117.39757 3897 ft 106 kts 100°
2026-05-09 16:51 32.90859 -117.38912 3923 ft 105 kts 99°
2026-05-09 16:52 32.90715 -117.38056 3937 ft 105 kts 99°
2026-05-09 16:52 32.90561 -117.37202 3944 ft 105 kts 100°
2026-05-09 16:52 32.90402 -117.36358 3937 ft 106 kts 100°
2026-05-09 16:52 32.90257 -117.35486 3904 ft 107 kts 98°
2026-05-09 16:53 32.90138 -117.34621 3860 ft 106 kts 97°
2026-05-09 16:53 32.90035 -117.33741 3649 ft 109 kts 96°
2026-05-09 16:53 32.89931 -117.32831 3409 ft 111 kts 96°
2026-05-09 16:53 32.89816 -117.31916 3158 ft 113 kts 97°
2026-05-09 16:54 32.89691 -117.30997 2888 ft 116 kts 98°
2026-05-09 16:54 32.89560 -117.30077 2860 ft 107 kts 98°
2026-05-09 16:54 32.89440 -117.29217 2843 ft 105 kts 97°
2026-05-09 16:54 32.89326 -117.28356 2807 ft 106 kts 96°
2026-05-09 16:55 32.89194 -117.27492 2778 ft 105 kts 99°
2026-05-09 16:55 32.89069 -117.26635 2772 ft 104 kts 97°
2026-05-09 16:55 32.88980 -117.25798 2813 ft 101 kts 94°
2026-05-09 16:55 32.88899 -117.24963 2843 ft 102 kts 95°
2026-05-09 16:56 32.88823 -117.24129 2841 ft 104 kts 94°
2026-05-09 16:56 32.88728 -117.23266 2795 ft 106 kts 98°
2026-05-09 16:56 32.88603 -117.22409 2638 ft 106 kts 100°
2026-05-09 16:56 32.88462 -117.21536 2372 ft 110 kts 102°
2026-05-09 16:57 32.88276 -117.20643 2107 ft 111 kts 105°
2026-05-09 16:57 32.88065 -117.19766 1858 ft 110 kts 107°
2026-05-09 16:57 32.87840 -117.18895 1770 ft 108 kts 107°
2026-05-09 16:57 32.87615 -117.18049 1747 ft 105 kts 108°
2026-05-09 16:58 32.87376 -117.17223 1697 ft 106 kts 109°
2026-05-09 16:58 32.87041 -117.16438 1496 ft 109 kts 120°
2026-05-09 16:58 32.86641 -117.15665 1256 ft 109 kts 122°
2026-05-09 16:58 32.86217 -117.14938 1067 ft 107 kts 125°
2026-05-09 16:59 32.85807 -117.14269 1038 ft 88 kts 123°
2026-05-09 16:59 32.85763 -117.13637 1136 ft 76 kts 71°
2026-05-09 16:59 32.85937 -117.13029 1144 ft 82 kts 70°
2026-05-09 16:59 32.86118 -117.12347 1069 ft 89 kts 73°
2026-05-09 17:00 32.86276 -117.11641 881 ft 91 kts 70°
2026-05-09 17:00 32.86745 -117.11309 800 ft 82 kts 349°
2026-05-09 17:00 32.87260 -117.11575 772 ft 79 kts 330°
2026-05-09 17:00 32.87481 -117.12097 716 ft 76 kts 256°
2026-05-09 17:01 32.87283 -117.12704 542 ft 80 kts 256°
2026-05-09 17:01 32.87155 -117.13297 475 ft 62 kts 256°
2026-05-09 17:01 32.87069 -117.13693 459 ft 38 kts 254°
2026-05-09 17:01 32.87017 -117.13924 455 ft 20 kts 257°
2026-05-09 17:02 32.87002 -117.14050 453 ft 11 kts 279°
2026-05-09 17:02 32.87029 -117.14168 453 ft 13 kts 292°
2026-05-09 17:02 32.87040 -117.14201 452 ft 0 kts 285°
2026-05-09 17:06 32.87046 -117.14224 452 ft 8 kts 288°
2026-05-09 17:07 32.87068 -117.14298 451 ft 9 kts 292°
2026-05-09 17:07 32.87093 -117.14343 450 ft 11 kts 314°
2026-05-09 17:07 32.87205 -117.14360 449 ft 12 kts
2026-05-09 17:07 32.87292 -117.14352 450 ft 12 kts
2026-05-09 17:08 32.87378 -117.14342 449 ft 13 kts
2026-05-09 17:08 32.87501 -117.14304 447 ft 2 kts 42°
2026-05-09 17:08 32.87504 -117.14300 447 ft 0 kts 41°